Regional Weather Roundup
Issued by NWS Kansas City/Pleasant Hill, MO

Home | Current Version | Previous Version | Text Only | Print | Product List | Glossary On
Versions: 1 2 3 4 5 6 7 8 9 10 11 12 13 14 15 16 17 18 19 20 21 22 23 24 25 26 27 28 29 30 31 32 33 34 35 36 37 38 39 40 41 42 43 44 45 46 47 48 49 50
000
ASUS43 KEAX 180411
RWREAX

WEATHER ROUNDUP FOR EASTERN KANSAS AND NORTHWEST MISSOURI
NATIONAL WEATHER SERVICE KANSAS CITY/PLEASANT HILL MO
1100 PM CDT THU APR 17 2014

KSZ040-057-103>105-MOZ028-029-037-043-180500-
...KANSAS CITY METROPOLITAN AREA...

CITY           SKY/WX    TMP DP  RH WIND       PRES   REMARKS
K.C. INTL      CLEAR     40  31  70 S5        30.28S
K.C. DOWNTOWN  CLEAR     46  34  62 CALM      30.28F
LEES SUMMIT    CLOUDY    43  34  70 CALM      30.28F
OLATHE - IXD   CLEAR     38  33  82 CALM      30.28F
OLATHE - OJC   PTCLDY    39  33  79 CALM      30.27F
LAWRENCE       CLEAR     36  32  85 CALM      30.29S

$$

MOZ001>008-011>017-020>025-030>033-038>040-044>046-053-054-180500-
...NORTHERN AND CENTRAL MISSOURI...

CITY           SKY/WX    TMP DP  RH WIND       PRES   REMARKS
ST. JOSEPH     CLEAR     43  33  68 CALM      30.28F
MOSBY          FAIR      36  36 100 CALM      30.28F
WARRENSBURG    CLEAR    N/A N/A N/A CALM      30.29S
WHITEMAN AFB   CLEAR     39  35  83 CALM      30.28S
CLINTON        CLEAR     41  39  93 CALM      30.29S FOG
SEDALIA        MOCLDY    43  39  86 NW3       30.29R
WARSAW         NOT AVBL
MARSHALL         N/A     46  39  76 N5        30.29
CHILLICOTHE      N/A     38  33  82 CALM      30.29F
MOBERLY        PTCLDY    43  36  75 N5        30.28F
KIRKSVILLE     CLEAR     36  32  85 W5        30.29S WCI  32

$$

MOZ041-047>049-056>058-063>065-088>090-097-180500-
...EASTERN AND SOUTHERN MISSOURI...

CITY           SKY/WX    TMP DP  RH WIND       PRES   REMARKS
ST. LOUIS INTL CLOUDY    53  40  61 N5        30.27S
SPIRIT OF STL  CLOUDY    52  39  61 N5        30.27S
COLUMBIA       CLOUDY    47  40  76 CALM      30.28S
JEFFERSON CITY CLOUDY    49  39  68 CALM      30.28F
MEXICO         CLOUDY    45  41  87 CALM      30.28S
HANNIBAL       DRIZZLE   48  36  61 CALM      30.29R
ROLLA          CLOUDY    47  40  76 N6        30.25S
LEBANON        PTCLDY    48  39  71 NE5       30.27S
OSAGE BEACH    MOCLDY    45  36  70 NE5       30.29S
SPRINGFIELD    CLOUDY    51  40  65 NE9       30.24S
BRANSON        MOCLDY    54  39  58 N6        30.23S
NEVADA         CLEAR     39  37  93 NE5       30.29S
JOPLIN         CLOUDY    46  42  86 N8        30.27R
WEST PLAINS    CLOUDY    54  37  52 N6        30.24S

$$

IAZ060-094-KSZ022-034>040-054-083-096-NEZ052-066-093-180500-
...KANSAS...SOUTHEAST NEBRASKA AND IOWA...

CITY           SKY/WX    TMP DP  RH WIND       PRES   REMARKS
TOPEKA         CLEAR     42  33  70 CALM      30.29S HAZE
MANHATTAN      CLOUDY    41  32  70 CALM      30.28R HAZE
EMPORIA        CLEAR     40  32  73 E3        30.27F HAZE
CHANUTE        CLEAR     41  37  86 N7        30.28R FOG
WICHITA        PTCLDY    40  35  83 CALM      30.27S HAZE
OMAHA          CLEAR     41  30  65 CALM      30.27S
LINCOLN        CLEAR     48  26  42 CALM      30.27S
FALLS CITY     CLEAR     43  28  55 CALM      30.26S
LAMONI         CLEAR     44  31  60 E5        30.27S
DES MOINES     CLEAR     45  31  58 E8        30.29F

$$




USA.gov is the U.S. government's official web portal to all federal, state and local government web resources and services.